When you browse on this site, cookies collect data to enhance your experience and personalize the content and advertising you see.
Visit our Privacy Policy to learn more. By continuing to use the site, you agree to this use of cookies and data.
  • Em Portugal
  • Lista de países
  • Para 7 dias
  • Temperatura da água
  • Mapas de satélite
  • Mapa do tempo
  • Widgets de tempo
  • user-avatar
    Iniciar Sessão

    Previsão horária em Marino

    Hoje, 26 Abril, Sexta-feira

    Tempo Temperatura Precipitação Vento Pressão Humidade
    00:00 +14°C° 0 mm 1 m/s 752 mmHg 60%
    01:00 +14°C° 0 mm 1 m/s 752 mmHg 61%
    02:00 +14°C° 0 mm 1 m/s 752 mmHg 63%
    03:00 +13°C° 0 mm 1 m/s 752 mmHg 64%
    04:00 +13°C° 0 mm 1 m/s 752 mmHg 66%
    05:00 +13°C° 0 mm 1 m/s 752 mmHg 68%
    06:00 +15°C° 0 mm 1 m/s 752 mmHg 64%
    07:00 +16°C° 0 mm 1 m/s 752 mmHg 60%
    08:00 +18°C° 0 mm 1 m/s 752 mmHg 56%
    09:00 +20°C° 0 mm 1 m/s 752 mmHg 50%
    10:00 +21°C° 0 mm 2 m/s 752 mmHg 44%
    11:00 +23°C° 0 mm 2 m/s 752 mmHg 38%
    12:00 +23°C° 0 mm 2 m/s 752 mmHg 38%
    13:00 +23°C° 0 mm 1 m/s 751 mmHg 38%
    14:00 +23°C° 0 mm 1 m/s 751 mmHg 38%
    15:00 +22°C° 0 mm 1 m/s 751 mmHg 40%
    16:00 +22°C° 0 mm 1 m/s 750 mmHg 41%
    17:00 +22°C° 0 mm 1 m/s 750 mmHg 43%
    18:00 +20°C° 0 mm 1 m/s 750 mmHg 48%
    19:00 +18°C° 0 mm 2 m/s 750 mmHg 53%
    20:00 +16°C° 0 mm 2 m/s 749 mmHg 58%
    21:00 +15°C° 0.1 mm 2 m/s 749 mmHg 62%
    22:00 +14°C° 0.1 mm 2 m/s 749 mmHg 65%
    23:00 +13°C° 0.1 mm 2 m/s 749 mmHg 69%

    Amanhã, 27 Abril, Sábado

    Tempo Temperatura Precipitação Vento Pressão Humidade
    00:00 +13°C° 0 mm 2 m/s 749 mmHg 67%
    01:00 +13°C° 0 mm 2 m/s 748 mmHg 66%
    02:00 +14°C° 0 mm 1 m/s 748 mmHg 65%
    03:00 +13°C° 0 mm 2 m/s 748 mmHg 66%
    04:00 +13°C° 0 mm 2 m/s 747 mmHg 67%
    05:00 +12°C° 0 mm 2 m/s 747 mmHg 67%
    06:00 +14°C° 0 mm 2 m/s 747 mmHg 63%
    07:00 +16°C° 0 mm 2 m/s 746 mmHg 58%
    08:00 +18°C° 0 mm 2 m/s 746 mmHg 53%
    09:00 +19°C° 0 mm 2 m/s 746 mmHg 48%
    10:00 +20°C° 0 mm 3 m/s 745 mmHg 42%
    11:00 +22°C° 0 mm 3 m/s 745 mmHg 37%
    12:00 +22°C° 0 mm 3 m/s 745 mmHg 37%
    13:00 +22°C° 0 mm 3 m/s 744 mmHg 37%
    14:00 +22°C° 0 mm 3 m/s 744 mmHg 37%
    15:00 +21°C° 0 mm 2 m/s 743 mmHg 40%
    16:00 +21°C° 0 mm 2 m/s 743 mmHg 44%
    17:00 +21°C° 0 mm 1 m/s 743 mmHg 48%
    18:00 +19°C° 0.3 mm 2 m/s 743 mmHg 56%
    19:00 +17°C° 0.3 mm 2 m/s 743 mmHg 65%
    20:00 +14°C° 0.3 mm 3 m/s 743 mmHg 74%
    21:00 +13°C° 0.4 mm 3 m/s 743 mmHg 79%
    22:00 +12°C° 0.4 mm 3 m/s 743 mmHg 85%
    23:00 +11°C° 0.4 mm 4 m/s 744 mmHg 90%

    Depois de amanhã, 28 Abril, Domingo

    Tempo Temperatura Precipitação Vento Pressão Humidade
    00:00 +10°C° 0 mm 4 m/s 744 mmHg 89%
    01:00 +8°C° 0 mm 4 m/s 745 mmHg 88%
    02:00 +7°C° 0 mm 4 m/s 745 mmHg 87%
    03:00 +6°C° 0 mm 5 m/s 746 mmHg 84%
    04:00 +5°C° 0 mm 5 m/s 746 mmHg 81%
    05:00 +2°C° 0 mm 5 m/s 747 mmHg 78%
    06:00 +2°C° 0 mm 5 m/s 748 mmHg 72%
    07:00 +2°C° 0 mm 5 m/s 749 mmHg 65%
    08:00 +2°C° 0 mm 5 m/s 749 mmHg 58%
    09:00 +3°C° 0 mm 5 m/s 750 mmHg 51%
    10:00 +5°C° 0 mm 5 m/s 750 mmHg 45%
    11:00 +6°C° 0 mm 5 m/s 751 mmHg 38%
    12:00 +7°C° 0 mm 5 m/s 751 mmHg 36%
    13:00 +7°C° 0 mm 5 m/s 751 mmHg 34%
    14:00 +8°C° 0 mm 5 m/s 751 mmHg 33%
    15:00 +8°C° 0 mm 5 m/s 751 mmHg 34%
    16:00 +7°C° 0 mm 5 m/s 751 mmHg 36%
    17:00 +7°C° 0 mm 4 m/s 752 mmHg 37%
    18:00 +5°C° 0 mm 4 m/s 752 mmHg 43%
    19:00 +4°C° 0 mm 3 m/s 753 mmHg 48%
    20:00 +4°C° 0 mm 2 m/s 753 mmHg 54%
    21:00 +3°C° 0 mm 2 m/s 754 mmHg 56%
    22:00 +2°C° 0 mm 2 m/s 754 mmHg 57%
    23:00 +1°C° 0 mm 2 m/s 754 mmHg 59%

    29 Abril, Segunda-feira

    Tempo Temperatura Precipitação Vento Pressão Humidade
    00:00 +1°C° 0 mm 2 m/s 755 mmHg 61%
    01:00 -1°C° 0 mm 2 m/s 755 mmHg 63%
    02:00 -1°C° 0 mm 2 m/s 755 mmHg 65%
    03:00 -1°C° 0 mm 2 m/s 755 mmHg 65%
    04:00 -2°C° 0 mm 2 m/s 756 mmHg 65%
    05:00 -2°C° 0 mm 2 m/s 756 mmHg 65%
    06:00 +1°C° 0 mm 2 m/s 756 mmHg 57%
    07:00 +2°C° 0 mm 3 m/s 756 mmHg 49%
    08:00 +4°C° 0 mm 3 m/s 756 mmHg 40%
    09:00 +5°C° 0 mm 3 m/s 756 mmHg 37%
    10:00 +7°C° 0 mm 3 m/s 756 mmHg 33%
    11:00 +8°C° 0 mm 2 m/s 756 mmHg 30%
    12:00 +8°C° 0 mm 2 m/s 755 mmHg 29%
    13:00 +9°C° 0 mm 2 m/s 755 mmHg 28%
    14:00 +10°C° 0 mm 2 m/s 755 mmHg 27%
    15:00 +9°C° 0 mm 2 m/s 754 mmHg 28%
    16:00 +10°C° 0 mm 1 m/s 754 mmHg 29%
    17:00 +10°C° 0 mm 1 m/s 754 mmHg 30%
    18:00 +8°C° 0 mm 1 m/s 754 mmHg 35%
    19:00 +6°C° 0 mm 1 m/s 754 mmHg 41%
    20:00 +5°C° 0 mm 1 m/s 754 mmHg 46%
    21:00 +4°C° 0 mm 1 m/s 753 mmHg 49%
    22:00 +3°C° 0 mm 1 m/s 753 mmHg 51%
    23:00 +3°C° 0 mm 1 m/s 753 mmHg 54%

    30 Abril, Terça-feira

    Tempo Temperatura Precipitação Vento Pressão Humidade
    00:00 +2°C° 0 mm 1 m/s 753 mmHg 55%
    01:00 +2°C° 0 mm 1 m/s 753 mmHg 55%
    02:00 +2°C° 0 mm 1 m/s 753 mmHg 56%
    03:00 +2°C° 0 mm 1 m/s 753 mmHg 56%
    04:00 +2°C° 0 mm 1 m/s 752 mmHg 56%
    05:00 +2°C° 0 mm 1 m/s 752 mmHg 56%
    06:00 +4°C° 0 mm 1 m/s 752 mmHg 50%
    07:00 +7°C° 0 mm 1 m/s 752 mmHg 44%
    08:00 +9°C° 0 mm 1 m/s 752 mmHg 38%
    09:00 +10°C° 0 mm 1 m/s 752 mmHg 35%
    10:00 +12°C° 0 mm 1 m/s 751 mmHg 32%
    11:00 +13°C° 0 mm 1 m/s 751 mmHg 29%
    12:00 +13°C° 0 mm 1 m/s 751 mmHg 29%
    13:00 +14°C° 0 mm 1 m/s 750 mmHg 30%
    14:00 +14°C° 0 mm 1 m/s 750 mmHg 30%
    15:00 +12°C° 0 mm 0 m/s 750 mmHg 31%
    16:00 +12°C° 0 mm 0 m/s 749 mmHg 32%
    17:00 +11°C° 0 mm 0 m/s 749 mmHg 33%
    18:00 +9°C° 0 mm 0 m/s 749 mmHg 37%
    19:00 +9°C° 0 mm 1 m/s 749 mmHg 41%
    20:00 +7°C° 0 mm 1 m/s 749 mmHg 46%
    21:00 +7°C° 0 mm 1 m/s 749 mmHg 48%
    22:00 +6°C° 0 mm 1 m/s 749 mmHg 50%
    23:00 +5°C° 0 mm 1 m/s 749 mmHg 52%

    1 Maio, Quarta-feira

    Tempo Temperatura Precipitação Vento Pressão Humidade
    00:00 +5°C° 0 mm 1 m/s 748 mmHg 54%
    01:00 +4°C° 0 mm 1 m/s 748 mmHg 56%
    02:00 +4°C° 0 mm 1 m/s 748 mmHg 57%
    03:00 +4°C° 0 mm 1 m/s 748 mmHg 57%
    04:00 +4°C° 0 mm 1 m/s 748 mmHg 57%
    05:00 +4°C° 0 mm 1 m/s 747 mmHg 57%
    06:00 +6°C° 0 mm 1 m/s 747 mmHg 51%
    07:00 +7°C° 0 mm 2 m/s 747 mmHg 46%
    08:00 +9°C° 0 mm 2 m/s 747 mmHg 40%
    09:00 +10°C° 0 mm 2 m/s 747 mmHg 37%
    10:00 +12°C° 0 mm 2 m/s 746 mmHg 34%
    11:00 +14°C° 0 mm 2 m/s 746 mmHg 31%
    12:00 +14°C° 0 mm 2 m/s 745 mmHg 31%
    13:00 +13°C° 0 mm 3 m/s 744 mmHg 31%
    14:00 +14°C° 0 mm 3 m/s 744 mmHg 31%
    15:00 +13°C° 0 mm 3 m/s 743 mmHg 33%
    16:00 +13°C° 0 mm 3 m/s 743 mmHg 35%
    17:00 +13°C° 0 mm 3 m/s 742 mmHg 37%
    18:00 +11°C° 0 mm 3 m/s 742 mmHg 44%
    19:00 +9°C° 0 mm 3 m/s 742 mmHg 51%
    20:00 +7°C° 0 mm 3 m/s 742 mmHg 57%
    21:00 +7°C° 0 mm 3 m/s 741 mmHg 58%
    22:00 +7°C° 0 mm 3 m/s 741 mmHg 58%
    23:00 +7°C° 0 mm 3 m/s 741 mmHg 58%
    Mostrar mais